Regional Weather Roundup
Issued by NWS Charleston, SC

Current Version | Previous Version | Graphics & Text | Print | Product List | Glossary On
Versions: 1 2 3 4 5 6 7 8 9 10 11 12 13 14 15 16 17 18 19 20 21 22 23 24 25 26 27 28 29 30 31 32 33 34 35 36 37 38 39 40 41 42 43 44 45 46 47 48 49 50
519
ASUS42 KCHS 161612
RWRCHS

REGIONAL WEATHER ROUNDUP
NATIONAL WEATHER SERVICE CHARLESTON SC
1100 AM EST MON JAN 16 2017

NOTE: "FAIR" INDICATES FEW OR NO CLOUDS BELOW 12,000 FEET WITH NO
SIGNIFICANT WEATHER AND/OR OBSTRUCTIONS TO VISIBILITY.

NOT ALL STATIONS ARE QUALITY CONTROLLED. USE DATA WITH CAUTION...
ESPECIALLY DEWPOINT OBSERVATIONS.

SCZ027-030-031-034>040-042>050-161700-
...SOUTHEAST SOUTH CAROLINA...

CITY           SKY/WX    TMP DP  RH WIND       PRES   REMARKS
N CHARLESTON   FOG       59  57  93 NE7       30.37S VSB 1
WATERFRONT PRK   N/A     56  56 100 N7        30.37R
MOUNT PLEASANT CLOUDY    57  57 100 N3        30.38S
JOHNS ISLAND   CLOUDY    59  59 100 N5        30.37S FOG
PINOPOLIS        N/A     54  54 100 E6        30.30
MONCKS CORNER  CLOUDY    55  54  94 NE5       30.39R FOG
SUMMERVILLE    CLOUDY   N/A N/A N/A N5        30.39S FOG
BEAUFORT MCAS  CLOUDY    60  57  89 CALM      30.38R
BEAUFORT ARPT  PTSUNNY   59  55  88 NE3       30.37R
HILTON HEAD IS PTSUNNY   63  61  94 NE6       30.37R
WALTERBORO     CLOUDY    59 N/A N/A NE6       30.38S
ALLENDALE      CLOUDY    63  57  82 CALM      30.36S

...SOUTHERN MIDLANDS AND PEE DEE...

CITY           SKY/WX    TMP DP  RH WIND       PRES   REMARKS
GEORGETOWN     CLOUDY    52  52 100 NE8       30.40F FOG
KINGSTREE      CLOUDY    52  52 100 NE6       30.41R FOG
ORANGEBURG     FOG       56  55  97 NE8       30.39R VSB 1
BARNWELL       FAIR      61  57  88 NE5       30.38R HAZE
AIKEN          FOG       52  52 100 N6        30.42R VSB<1/4
MANNING        CLOUDY    54  52  94 NE7       30.39F FOG
COLUMBIA       CLOUDY    57  54  89 NE5       30.39S FOG
SUMTER         CLOUDY    54  52  94 NE7       30.38F FOG
FLORENCE       FOG       51  51 100 NE7       30.42S VSB 1
MYRTLE BEACH   CLOUDY    55  48  76 NE12      30.42S FOG
N MYRTLE BEACH CLOUDY    55  49  80 NE6       30.40S

$$

GAZ063-065-086>088-099>101-113>116-118-119-134>141-150-161700-
...SOUTHEAST GEORGIA...

CITY           SKY/WX    TMP DP  RH WIND       PRES   REMARKS
SAVANNAH ARPT  PTSUNNY   68  58  70 NE6       30.36S
HUNTER AAF     MOSUNNY   66  59  77 CALM      30.33S
FORT STEWART   PTSUNNY   68  59  72 CALM      30.32F
STATESBORO     CLOUDY    66  61  82 CALM      30.37R
SYLVANIA       CLOUDY   N/A N/A N/A CALM      30.37S
CLAXTON        FAIR     N/A N/A N/A CALM      30.36S

...CSRA...CENTRAL AND FAR SOUTHEAST GEORGIA...

CITY           SKY/WX    TMP DP  RH WIND       PRES   REMARKS
THOMSON        CLOUDY    61  58  90 CALM      30.41S
AUGUSTA-BUSH   PTSUNNY   66  55  67 VRB3      30.37R
AUGUSTA-DANIEL CLOUDY    63  53  70 NE3       30.38R
SWAINSBORO     FAIR      72  57  60 S6        30.36S
VIDALIA        SUNNY     72  63  73 S3        30.35S
EASTMAN        PTSUNNY   72  51  46 S8        30.36F
HAZLEHURST     FAIR      73  63  70 SW7       30.33S
ALMA           SUNNY     72  60  66 S7        30.33S
WAYCROSS       SUNNY     75  64  69 S6        30.33S
JESUP          FAIR      72  59  64 CALM      30.34S
BAXLEY         FAIR      73  64  73 SE6       30.34R
BRUNSWICK      PTSUNNY   73  64  73 E5        30.34F
SAINT SIMONS   MOSUNNY   70  60  70 E5        30.33R

$$

SCZ027-028-034-036>038-045-046-048>050-GAZ119-141-161700-
...LAKE AND SUPPLEMENTAL COASTAL OBSERVATIONS...

STATION/POSITION TIME  TEMP    WIND        PRES    WAVE   SWELL
                       AIR SEA DIR/SP/G            HT/PER HT/PER/DIR
                 (UTC) (F)     (DEG/KT/KT) (MB)    (FT/S) (FT/S/D)
WINYAH BAY       1445   52      40/ 10     1029.0
LAKE MURRAY      1520   55      70/  4/  8 1028.4
ACE BASIN NERRS  1445   58      40/  2     1028.0
FORT PULASKI     1536   57 56   70/ 11/ 14 1028.4R
SAPELO ISLAND    1500   65      20/  4     1027.0

$$

ANZ835-935-AMZ111-154-330-350-352-354-370-450-454-472-161700-
...C-MAN AND BUOY OBSERVATIONS...

STATION/POSITION TIME  TEMP    WIND        PRES    WAVE   SWELL
                       AIR SEA DIR/SP/G            HT/PER HT/PER/DIR
                 (UTC) (F)     (DEG/KT/KT) (MB)    (FT/S) (FT/S/D)
BUOY 41004       1450   69 71   30/ 10/ 10 1026.8    4/10   3/110/10
BUOY 41008       1450   62 60   50/  6/  8 1026.7    2/11   2/110/11
FOLLY BEACH CMAN 1500   56      20/  9/ 11 1028.9R
CAPERS NEARSHORE 1508   53 54   30/ 12/ 16 1028.3R
FRIPP NEARSHORE  1508   56 56   50/ 12/ 14 1027.7R


STATION/POSITION TIME  TEMP    WIND        PRES    WAVE   SWELL
                       AIR SEA DIR/SP/G            HT/PER HT/PER/DIR
                 (UTC) (F)     (DEG/KT/KT) (MB)    (FT/S) (FT/S/D)
5E ST. MARYS GA  1530      62                N/A     2/11   2/ 90/11
FRYING PAN BUOY  1550   64 71   30/ 16/ 19 1028.5R   4/ 6   2/140/ 8
BUOY 41025       1550   57 74   20/ 16/ 19 1029.5R   5/ 5   2/ 80/ 8
CAPE LOOKOUT NC  1500   49      20/ 15/ 17 1029.8R
BUOY 41002       1450   69 71   80/  4/  6 1027.9    4/ 8   3/ 40/ 8
BUOY 41010       NOT AVBL
ST AUGUSTINE FL  1600   67 64   50/  1/  1 1027.7S


$$




USA.gov is the U.S. government's official web portal to all federal, state and local government web resources and services.